Darstellungsparameter: Aktuell verwendete Einstellungen:
Skalierung der Graphiken ... ?
xyx+y,   Skalierungsfaktor:      Skalierung: Modus: x, Faktor: 1
Darstellungszeitraum ... ?
Vom - - bis: - -   Zeitraum: 17.05.2020 - 22.01.2021
Min/Max/Avg-Anzeige ... ?
Zeige MMA aktuell
Zeige MMA Monat
Zeige MMA alles
Zeige --A aktuell
Zeige --A Monat
Zeige --A alles
Keine MMA-Anzeige
MMA:
Average (ber die Originaldaten)
MMA-Basis: 17.05.2020 - 22.01.2021
Quicknavigation für Darstellung... ?
Tage:      1T, 2T, 3T, 5T -1T -2T -3T -5T +1T +2T +3T +5T
Wochen: 1W, 2W, 3W -1W -2W -3W +1W +2W +3W
Monate: 1M, 3M, 6M -1M -3M -6M +1M +3M +6M
Jahre:    1J, 3J, 5J, 10J -1J -3J -5J -10J +1J +3J +5J +10J
Nutze für die Darstellung ... ?
Originaldaten oder ...
Mittelwerte Minima Maxima auf...
Stundenbasis Tagesbasis Wochenbasis
Monatsbasis Jahresbasis      Datenbasis: Mittelwerte auf Tagesbasis
Darstellen als:
Statistik (Auto) Statistik J:M      Darstellung:

Der gewünschte Datumsbereich war nicht gültig/verfügbar und wurde korrigiert....
Das angegebene Enddatum (16.05.2030 23:59:59) liegt in der Zukunft.


Zur Graphik,    zurück zur Übersicht aller Sensoren.
 
Tabellarische Datenbersicht: ?
 
Sensor: Nr:Datum:Temp:Abs-Feuchte:Windchill:Wind:
Aussen-T/F 1 17-05-2020 00:00:00 13.11528 C 7.24 g/m*3 13.12 C 5.45208 km/h
2 18-05-2020 00:00:00 15.67292 C 8.67 g/m*3 15.67 C 4.54201 km/h
3 19-05-2020 00:00:00 16.60729 C 9.31 g/m*3 16.61 C 4.70694 km/h
4 20-05-2020 00:00:00 17.77917 C 10.91 g/m*3 17.78 C 5.79792 km/h
5 21-05-2020 00:00:00 19.01562 C 11.3 g/m*3 19.02 C 4.26215 km/h
6 22-05-2020 00:00:00 19.97639 C 12.99 g/m*3 19.98 C 4.51806 km/h
7 23-05-2020 00:00:00 13.69236 C 10.37 g/m*3 13.69 C 7.32083 km/h
8 24-05-2020 00:00:00 13.58542 C 8.77 g/m*3 13.59 C 8.86458 km/h
9 25-05-2020 00:00:00 15.93854 C 10.17 g/m*3 15.94 C 6.43507 km/h
10 26-05-2020 00:00:00 14.58437 C 8.98 g/m*3 14.58 C 4.27986 km/h
11 27-05-2020 00:00:00 16.48611 C 9.1 g/m*3 16.49 C 3.63056 km/h
12 28-05-2020 00:00:00 17.49132 C 8.08 g/m*3 17.49 C 7.57882 km/h
13 29-05-2020 00:00:00 15.20764 C 7.52 g/m*3 15.21 C 5.83229 km/h
14 30-05-2020 00:00:00 15.6941 C 7.43 g/m*3 15.69 C 7.54688 km/h
15 31-05-2020 00:00:00 15.11597 C 7.85 g/m*3 15.12 C 6.56979 km/h
16 01-06-2020 00:00:00 17.87257 C 9.2 g/m*3 17.87 C 5.67674 km/h
17 02-06-2020 00:00:00 19.76701 C 9.86 g/m*3 19.77 C 4.21389 km/h
18 03-06-2020 00:00:00 19.96667 C 10.41 g/m*3 19.97 C 3.58403 km/h
19 04-06-2020 00:00:00 14.67257 C 11.5 g/m*3 14.67 C 3.93715 km/h
20 05-06-2020 00:00:00 11.51111 C 8.89 g/m*3 11.51 C 8.28194 km/h
21 06-06-2020 00:00:00 12.4684 C 8.91 g/m*3 12.47 C 7.64097 km/h
22 07-06-2020 00:00:00 13.39861 C 8.64 g/m*3 13.4 C 6.02326 km/h
23 08-06-2020 00:00:00 14.75035 C 9.21 g/m*3 14.75 C 4.38229 km/h
24 09-06-2020 00:00:00 13.99236 C 10.65 g/m*3 13.99 C 4.11076 km/h
25 10-06-2020 00:00:00 15.4 C 11.26 g/m*3 15.4 C 2.45972 km/h
Sensor: Nr:Datum:Temp:Abs-Feuchte:Windchill:Wind:
Aussen-T/F 26 11-06-2020 00:00:00 15.74271 C 11.48 g/m*3 15.74 C 2.00035 km/h
27 12-06-2020 00:00:00 19.42083 C 12.29 g/m*3 19.42 C 5.55 km/h
28 13-06-2020 00:00:00 20.95799 C 12.96 g/m*3 20.96 C 4.51701 km/h
29 14-06-2020 00:00:00 18.87917 C 13.01 g/m*3 18.88 C 3.71146 km/h
30 15-06-2020 00:00:00 18.60291 C 12.82 g/m*3 18.6 C 2.99891 km/h
31 16-06-2020 00:00:00 18.0434 C 13.69 g/m*3 18.04 C 1.73021 km/h
32 17-06-2020 00:00:00 17.45903 C 13.34 g/m*3 17.46 C 2.12708 km/h
33 18-06-2020 00:00:00 18.51528 C 12.26 g/m*3 18.52 C 7.04444 km/h
34 19-06-2020 00:00:00 16.72674 C 12.02 g/m*3 16.73 C 5.28472 km/h
35 20-06-2020 00:00:00 16.94271 C 12.22 g/m*3 16.94 C 2.92049 km/h
36 21-06-2020 00:00:00 19.05278 C 12.22 g/m*3 19.05 C 4.57847 km/h
37 22-06-2020 00:00:00 18.83785 C 11.69 g/m*3 18.84 C 5.54479 km/h
38 23-06-2020 00:00:00 19.59583 C 11.59 g/m*3 19.6 C 4.04375 km/h
39 24-06-2020 00:00:00 21.22153 C 11.17 g/m*3 21.22 C 6.9809 km/h
40 25-06-2020 00:00:00 21.70278 C 12.93 g/m*3 21.7 C 6.25174 km/h
41 26-06-2020 00:00:00 21.67743 C 13.49 g/m*3 21.68 C 4.66563 km/h
42 27-06-2020 00:00:00 22.68785 C 14.63 g/m*3 22.69 C 7.36736 km/h
43 28-06-2020 00:00:00 19.86979 C 12.42 g/m*3 19.87 C 6.54306 km/h
44 29-06-2020 00:00:00 17.69792 C 10.81 g/m*3 17.7 C 7.67604 km/h
45 30-06-2020 00:00:00 16.88194 C 10.24 g/m*3 16.88 C 6.7059 km/h
46 01-07-2020 00:00:00 21.29896 C 13.31 g/m*3 21.3 C 10.40972 km/h
47 02-07-2020 00:00:00 18.73125 C 13.11 g/m*3 18.73 C 5.31354 km/h
48 03-07-2020 00:00:00 17.73958 C 10.91 g/m*3 17.74 C 5.90243 km/h
49 04-07-2020 00:00:00 19.09826 C 11.22 g/m*3 19.1 C 9.03576 km/h
50 05-07-2020 00:00:00 22.80243 C 14.45 g/m*3 22.8 C 14.43472 km/h
Sensor: Nr:Datum:Temp:Abs-Feuchte:Windchill:Wind:
Aussen-T/F 51 06-07-2020 00:00:00 16.79653 C 9.41 g/m*3 16.8 C 9.54965 km/h
52 07-07-2020 00:00:00 16.09792 C 9.28 g/m*3 16.1 C 4.51979 km/h
53 08-07-2020 00:00:00 15.87639 C 11.63 g/m*3 15.88 C 2.19965 km/h
54 09-07-2020 00:00:00 21.61424 C 14.17 g/m*3 21.61 C 7.27465 km/h
55 10-07-2020 00:00:00 18.63368 C 12.54 g/m*3 18.63 C 7.30625 km/h
56 11-07-2020 00:00:00 16.57431 C 9.5 g/m*3 16.57 C 5.36806 km/h
57 12-07-2020 00:00:00 16.85382 C 9.47 g/m*3 16.85 C 4.99965 km/h
58 13-07-2020 00:00:00 19.08542 C 9.77 g/m*3 19.09 C 3.90694 km/h
59 14-07-2020 00:00:00 18.66215 C 10.73 g/m*3 18.66 C 4.1316 km/h
60 15-07-2020 00:00:00 17.55208 C 10.88 g/m*3 17.55 C 7.17049 km/h
61 16-07-2020 00:00:00 16.0875 C 12.17 g/m*3 16.09 C 3.15556 km/h
62 17-07-2020 00:00:00 18.58611 C 12.76 g/m*3 18.59 C 4.21146 km/h
63 18-07-2020 00:00:00 19.51944 C 12.49 g/m*3 19.52 C 2.44375 km/h
64 19-07-2020 00:00:00 22.30451 C 12.45 g/m*3 22.3 C 4.27847 km/h
65 20-07-2020 00:00:00 19.42708 C 11.97 g/m*3 19.43 C 5.98542 km/h
66 21-07-2020 00:00:00 17.64722 C 9.36 g/m*3 17.65 C 6.82917 km/h
67 22-07-2020 00:00:00 17.13264 C 9.19 g/m*3 17.13 C 4.72708 km/h
68 23-07-2020 00:00:00 18.84618 C 9.69 g/m*3 18.85 C 3.73542 km/h
69 24-07-2020 00:00:00 21.21007 C 10.98 g/m*3 21.21 C 5.5434 km/h
70 25-07-2020 00:00:00 21.01562 C 12.46 g/m*3 21.02 C 5.85486 km/h
71 26-07-2020 00:00:00 20.87674 C 12.83 g/m*3 20.88 C 8.55556 km/h
72 27-07-2020 00:00:00 21.66215 C 12.17 g/m*3 21.66 C 4.14063 km/h
73 28-07-2020 00:00:00 22.91424 C 11.11 g/m*3 22.91 C 8.9559 km/h
74 29-07-2020 00:00:00 18.94583 C 10.01 g/m*3 18.95 C 5.47014 km/h
75 30-07-2020 00:00:00 20.4309 C 10.48 g/m*3 20.43 C 3.57708 km/h
Sensor: Nr:Datum:Temp:Abs-Feuchte:Windchill:Wind:
Aussen-T/F 76 31-07-2020 00:00:00 24.16007 C 11.62 g/m*3 24.16 C 4.00486 km/h
77 01-08-2020 00:00:00 21.98437 C 15.22 g/m*3 21.98 C 4.02361 km/h
78 02-08-2020 00:00:00 21.28472 C 13.76 g/m*3 21.28 C 6.21458 km/h
79 03-08-2020 00:00:00 18.1684 C 11.28 g/m*3 18.17 C 2.92361 km/h
80 04-08-2020 00:00:00 19.15486 C 10.65 g/m*3 19.15 C 6.45208 km/h
81 05-08-2020 00:00:00 19.44549 C 10.24 g/m*3 19.45 C 3.93229 km/h
82 06-08-2020 00:00:00 21.8184 C 11.42 g/m*3 21.82 C 3.88889 km/h
83 07-08-2020 00:00:00 23.97535 C 12.92 g/m*3 23.98 C 3.60313 km/h
84 08-08-2020 00:00:00 26.13125 C 14.27 g/m*3 26.13 C 2.67743 km/h
85 09-08-2020 00:00:00 24.35937 C 14.79 g/m*3 24.36 C 2.33125 km/h
86 10-08-2020 00:00:00 25.68472 C 16.31 g/m*3 25.68 C 5.31979 km/h
87 11-08-2020 00:00:00 25.77396 C 16.38 g/m*3 25.77 C 4.50417 km/h
88 12-08-2020 00:00:00 23.65799 C 17.61 g/m*3 23.66 C 4.37049 km/h
89 13-08-2020 00:00:00 23.34201 C 17.36 g/m*3 23.34 C 4.0875 km/h
90 14-08-2020 00:00:00 23.16285 C 16 g/m*3 23.16 C 4.93507 km/h
91 15-08-2020 00:00:00 21.83368 C 16.27 g/m*3 21.83 C 1.87465 km/h
92 16-08-2020 00:00:00 22.52535 C 15.98 g/m*3 22.53 C 4.53715 km/h
93 17-08-2020 00:00:00 21.08056 C 15.08 g/m*3 21.08 C 5.46771 km/h
94 18-08-2020 00:00:00 19.08924 C 13.44 g/m*3 19.09 C 5.45035 km/h
95 19-08-2020 00:00:00 19.13125 C 13.6 g/m*3 19.13 C 2.6 km/h
96 20-08-2020 00:00:00 23.86042 C 16.77 g/m*3 23.86 C 3.63333 km/h
97 21-08-2020 00:00:00 25.27743 C 16.68 g/m*3 25.28 C 3.1684 km/h
98 22-08-2020 00:00:00 22.45625 C 13.37 g/m*3 22.46 C 8.48924 km/h
99 23-08-2020 00:00:00 19.15764 C 11.48 g/m*3 19.16 C 8.00417 km/h
100 24-08-2020 00:00:00 18.23437 C 11.11 g/m*3 18.23 C 7.39236 km/h
Sensor: Nr:Datum:Temp:Abs-Feuchte:Windchill:Wind:
Aussen-T/F 101 25-08-2020 00:00:00 19.07917 C 11.78 g/m*3 19.08 C 2.38854 km/h
102 26-08-2020 00:00:00 20.74132 C 10.59 g/m*3 20.74 C 17.51354 km/h
103 27-08-2020 00:00:00 18.39271 C 10.85 g/m*3 18.39 C 4.98194 km/h
104 28-08-2020 00:00:00 17.86667 C 11.89 g/m*3 17.87 C 5.87326 km/h
105 29-08-2020 00:00:00 16.24479 C 10.69 g/m*3 16.24 C 6.83125 km/h
106 30-08-2020 00:00:00 15.77153 C 10.79 g/m*3 15.77 C 3.10139 km/h
107 31-08-2020 00:00:00 15.63437 C 11.83 g/m*3 15.63 C 1.73993 km/h
108 01-09-2020 00:00:00 15.08889 C 11.37 g/m*3 15.09 C 2.16007 km/h
109 02-09-2020 00:00:00 15.65833 C 10.57 g/m*3 15.66 C 1.79826 km/h
110 03-09-2020 00:00:00 14.23542 C 10.76 g/m*3 14.24 C 2.02188 km/h
111 04-09-2020 00:00:00 20.30278 C 14.14 g/m*3 20.3 C 2.91528 km/h
112 05-09-2020 00:00:00 16.89688 C 11.32 g/m*3 16.9 C 5.12153 km/h
113 06-09-2020 00:00:00 13.28021 C 8.89 g/m*3 13.28 C 1.89306 km/h
114 07-09-2020 00:00:00 14.01493 C 9.14 g/m*3 14.01 C 1.69861 km/h
115 08-09-2020 00:00:00 16.29826 C 10.22 g/m*3 16.3 C 3.6691 km/h
116 09-09-2020 00:00:00 18.26667 C 12.68 g/m*3 18.27 C 2.00243 km/h
117 10-09-2020 00:00:00 17.81319 C 11.11 g/m*3 17.81 C 4.58264 km/h
118 11-09-2020 00:00:00 15.1066 C 9.78 g/m*3 15.11 C 1.90382 km/h
119 12-09-2020 00:00:00 17.20625 C 11.1 g/m*3 17.21 C 2.67917 km/h
120 13-09-2020 00:00:00 17.20486 C 10.98 g/m*3 17.2 C 1.15799 km/h
121 14-09-2020 00:00:00 18.81806 C 11.85 g/m*3 18.82 C 1.44514 km/h
122 15-09-2020 00:00:00 20.38194 C 12.5 g/m*3 20.38 C 1.33438 km/h
123 16-09-2020 00:00:00 20.67049 C 13.3 g/m*3 20.67 C 2.85139 km/h
124 17-09-2020 00:00:00 17.93958 C 9.81 g/m*3 17.94 C 7.81493 km/h
125 18-09-2020 00:00:00 15.74687 C 8.85 g/m*3 15.75 C 5.23993 km/h
Sensor: Nr:Datum:Temp:Abs-Feuchte:Windchill:Wind:
Aussen-T/F 126 19-09-2020 00:00:00 15.73333 C 8.37 g/m*3 15.73 C 3.23229 km/h
127 20-09-2020 00:00:00 14.83056 C 8.79 g/m*3 14.83 C 0.98333 km/h
128 21-09-2020 00:00:00 14.75174 C 8.82 g/m*3 14.75 C 1.3875 km/h
129 22-09-2020 00:00:00 16.10521 C 9.55 g/m*3 16.11 C 2.65486 km/h
130 23-09-2020 00:00:00 17.57639 C 10.33 g/m*3 17.58 C 4.72743 km/h
131 24-09-2020 00:00:00 16.23021 C 10.63 g/m*3 16.23 C 6.51458 km/h
132 25-09-2020 00:00:00 12.16979 C 8.92 g/m*3 12.17 C 6.2375 km/h
133 26-09-2020 00:00:00 10.52674 C 8.57 g/m*3 9.23 C 10.16528 km/h
134 27-09-2020 00:00:00 11.00694 C 9.2 g/m*3 11.01 C 3.05417 km/h
135 28-09-2020 00:00:00 11.72882 C 9.12 g/m*3 11.73 C 2.08542 km/h
136 29-09-2020 00:00:00 12.13333 C 10.11 g/m*3 12.13 C 2.01181 km/h
137 30-09-2020 00:00:00 14.10799 C 11.27 g/m*3 14.11 C 1.49028 km/h
138 01-10-2020 00:00:00 12.57465 C 10.28 g/m*3 12.57 C 1.79167 km/h
139 02-10-2020 00:00:00 13.41493 C 10.32 g/m*3 13.41 C 3.99028 km/h
140 03-10-2020 00:00:00 13.37049 C 10.26 g/m*3 13.37 C 4.70139 km/h
141 04-10-2020 00:00:00 11.79861 C 9.09 g/m*3 11.8 C 5.03785 km/h
142 05-10-2020 00:00:00 11.07257 C 9.18 g/m*3 11.07 C 4.18125 km/h
143 06-10-2020 00:00:00 13.11389 C 10.11 g/m*3 13.11 C 9.72361 km/h
144 07-10-2020 00:00:00 13.19444 C 9.43 g/m*3 13.19 C 10.52674 km/h
145 08-10-2020 00:00:00 13.25243 C 10.22 g/m*3 13.25 C 9.92882 km/h
146 09-10-2020 00:00:00 12.99063 C 10.74 g/m*3 12.99 C 3.04167 km/h
147 10-10-2020 00:00:00 9.91979 C 8.09 g/m*3 9.53 C 5.46806 km/h
148 11-10-2020 00:00:00 10.06944 C 7.91 g/m*3 10.07 C 3.7941 km/h
149 12-10-2020 00:00:00 9.40799 C 8.28 g/m*3 9.41 C 2.21146 km/h
150 13-10-2020 00:00:00 7.37361 C 7.35 g/m*3 7.37 C 1.675 km/h
Sensor: Nr:Datum:Temp:Abs-Feuchte:Windchill:Wind:
Aussen-T/F 151 14-10-2020 00:00:00 7.7559 C 7.3 g/m*3 7.76 C 3.28819 km/h
152 15-10-2020 00:00:00 9.09444 C 8.18 g/m*3 9.09 C 2.88958 km/h
153 16-10-2020 00:00:00 9.26007 C 8.27 g/m*3 9.26 C 1.825 km/h
154 17-10-2020 00:00:00 6.19618 C 6.87 g/m*3 6.2 C 0.83403 km/h
155 18-10-2020 00:00:00 8.18958 C 7.58 g/m*3 8.19 C 3.07847 km/h
156 19-10-2020 00:00:00 8.62604 C 7.89 g/m*3 8.63 C 1.77847 km/h
157 20-10-2020 00:00:00 8.95714 C 8.23 g/m*3 8.96 C 1.27108 km/h
158 21-10-2020 00:00:00 15.08611 C 10.6 g/m*3 15.09 C 3.43924 km/h
159 22-10-2020 00:00:00 16.18681 C 11.86 g/m*3 16.19 C 3.23125 km/h
160 23-10-2020 00:00:00 15.0691 C 11.94 g/m*3 15.07 C 1.57049 km/h
161 24-10-2020 00:00:00 13.40799 C 10.12 g/m*3 13.41 C 5.98194 km/h
162 25-10-2020 00:00:00 13.16458 C 9.89 g/m*3 13.16 C 2.75104 km/h
163 26-10-2020 00:00:00 10.20313 C 8.43 g/m*3 10.2 C 3.64583 km/h
164 27-10-2020 00:00:00 10.44514 C 8.03 g/m*3 10.45 C 4.82604 km/h
165 28-10-2020 00:00:00 12.59861 C 9.23 g/m*3 12.6 C 6.52049 km/h
166 29-10-2020 00:00:00 10.65347 C 9 g/m*3 10.04 C 6.76285 km/h
167 30-10-2020 00:00:00 13.81667 C 10.81 g/m*3 13.82 C 7.83611 km/h
168 31-10-2020 00:00:00 13.1434 C 9.98 g/m*3 13.14 C 3.45035 km/h
169 01-11-2020 00:00:00 15.18715 C 11.89 g/m*3 15.19 C 6.08715 km/h
170 02-11-2020 00:00:00 18.53125 C 12.8 g/m*3 18.53 C 13.2875 km/h
171 03-11-2020 00:00:00 10.3559 C 8.24 g/m*3 10.11 C 5.15382 km/h
172 04-11-2020 00:00:00 4.54444 C 6.28 g/m*3 4.54 C 0.86667 km/h
173 05-11-2020 00:00:00 3.1178 C 5.8 g/m*3 3.12 C 0.73898 km/h
174 06-11-2020 00:00:00 3.23681 C 5.88 g/m*3 3.24 C 1.18333 km/h
175 07-11-2020 00:00:00 4.20285 C 6.18 g/m*3 4.2 C 1.19573 km/h
Sensor: Nr:Datum:Temp:Abs-Feuchte:Windchill:Wind:
Aussen-T/F 176 08-11-2020 00:00:00 7.08472 C 7.39 g/m*3 7.08 C 0 km/h
177 09-11-2020 00:00:00 9.85972 C 8.93 g/m*3 9.86 C 0.26701 km/h
178 10-11-2020 00:00:00 7.08333 C 7.56 g/m*3 7.08 C 0.01667 km/h
179 11-11-2020 00:00:00 9.01875 C 8.34 g/m*3 9.02 C 2.23264 km/h
180 12-11-2020 00:00:00 9.26458 C 8.1 g/m*3 9.26 C 3.0566 km/h
181 13-11-2020 00:00:00 6.6191 C 7.24 g/m*3 6.62 C 0.48889 km/h
182 14-11-2020 00:00:00 10.4625 C 9 g/m*3 10.46 C 1.51354 km/h
183 15-11-2020 00:00:00 13.18819 C 9.92 g/m*3 13.19 C 4.00243 km/h
184 16-11-2020 00:00:00 10.81736 C 8.52 g/m*3 9.48 C 10.79271 km/h
185 17-11-2020 00:00:00 11.47778 C 8.76 g/m*3 11.48 C 8.51979 km/h
186 18-11-2020 00:00:00 9.90625 C 8.37 g/m*3 9.91 C 1.85 km/h
187 19-11-2020 00:00:00 8.99688 C 7.8 g/m*3 7.89 C 7.74306 km/h
188 20-11-2020 00:00:00 4.04167 C 5.9 g/m*3 4.04 C 2.40313 km/h
189 21-11-2020 00:00:00 3.39688 C 5.47 g/m*3 3.4 C 3.25903 km/h
190 22-11-2020 00:00:00 7.66701 C 6.84 g/m*3 5.58 C 11.4559 km/h
191 23-11-2020 00:00:00 7.74201 C 7.38 g/m*3 7.74 C 3.77917 km/h
192 24-11-2020 00:00:00 6.32917 C 6.81 g/m*3 6.33 C 1.77986 km/h
193 25-11-2020 00:00:00 4.53125 C 6.15 g/m*3 4.53 C 0.70139 km/h
194 26-11-2020 00:00:00 3.39653 C 5.79 g/m*3 3.4 C 1.24549 km/h
195 27-11-2020 00:00:00 3.65278 C 5.83 g/m*3 3.65 C 1.20035 km/h
196 28-11-2020 00:00:00 3.30521 C 5.6 g/m*3 3.31 C 2.09618 km/h
197 29-11-2020 00:00:00 0.89479 C 4.42 g/m*3 0.89 C 3.54375 km/h
198 30-11-2020 00:00:00 -1.56215 C 4.02 g/m*3 -1.56 C 4.05417 km/h
199 01-12-2020 00:00:00 2.81111 C 5.62 g/m*3 2.81 C 3.11563 km/h
200 02-12-2020 00:00:00 2.83889 C 5.63 g/m*3 2.84 C 0.50069 km/h
Sensor: Nr:Datum:Temp:Abs-Feuchte:Windchill:Wind:
Aussen-T/F 201 03-12-2020 00:00:00 3.59132 C 5.69 g/m*3 3.59 C 3.66944 km/h
202 04-12-2020 00:00:00 4.57361 C 6.21 g/m*3 4.57 C 4.0434 km/h
203 05-12-2020 00:00:00 4.12778 C 6.14 g/m*3 4.13 C 0.80104 km/h
204 06-12-2020 00:00:00 3.92917 C 6.1 g/m*3 3.93 C 0.6 km/h
205 07-12-2020 00:00:00 4.18854 C 6.12 g/m*3 4.19 C 2.85451 km/h
206 08-12-2020 00:00:00 3.36667 C 5.64 g/m*3 3.37 C 1.2316 km/h
207 09-12-2020 00:00:00 2.17326 C 5.2 g/m*3 2.17 C 2.31875 km/h
208 10-12-2020 00:00:00 0.38125 C 4.65 g/m*3 0.38 C 0.52222 km/h
209 11-12-2020 00:00:00 2.71597 C 5.29 g/m*3 2.72 C 3.92118 km/h
210 12-12-2020 00:00:00 6.01111 C 6.89 g/m*3 6.01 C 0.17222 km/h
211 13-12-2020 00:00:00 5.90799 C 6.84 g/m*3 5.91 C 2.30521 km/h
212 14-12-2020 00:00:00 6.08576 C 6.6 g/m*3 6.09 C 1.23472 km/h
213 15-12-2020 00:00:00 7.82014 C 7.84 g/m*3 7.82 C 0.87257 km/h
214 16-12-2020 00:00:00 7.48125 C 7.77 g/m*3 7.48 C 1.33438 km/h
215 17-12-2020 00:00:00 7.2309 C 7.48 g/m*3 7.23 C 3.21736 km/h
216 18-12-2020 00:00:00 4.31771 C 6.31 g/m*3 4.32 C 0.91875 km/h
217 19-12-2020 00:00:00 6.22292 C 6.99 g/m*3 6.22 C 2.33125 km/h
218 20-12-2020 00:00:00 7.98889 C 7.77 g/m*3 7.99 C 1.88681 km/h
219 21-12-2020 00:00:00 7.12639 C 7.44 g/m*3 7.13 C 1.81632 km/h
220 22-12-2020 00:00:00 13.11875 C 10.58 g/m*3 13.12 C 11.07153 km/h
221 23-12-2020 00:00:00 11.78889 C 10.17 g/m*3 11.79 C 3.35243 km/h
222 24-12-2020 00:00:00 6.83681 C 6.92 g/m*3 5.18 C 8.46944 km/h
223 25-12-2020 00:00:00 3.34653 C 5.57 g/m*3 3.35 C 4.76597 km/h
224 26-12-2020 00:00:00 2.93368 C 5.31 g/m*3 1.57 C 5.40313 km/h
225 27-12-2020 00:00:00 3.76528 C 5.54 g/m*3 1.83 C 7.48889 km/h
Sensor: Nr:Datum:Temp:Abs-Feuchte:Windchill:Wind:
Aussen-T/F 226 28-12-2020 00:00:00 3.67431 C 5.96 g/m*3 3.67 C 1.42951 km/h
227 29-12-2020 00:00:00 2.99375 C 5.59 g/m*3 2.99 C 4.11563 km/h
228 30-12-2020 00:00:00 3.90938 C 5.81 g/m*3 3.91 C 3.58611 km/h
229 31-12-2020 00:00:00 2.97986 C 5.53 g/m*3 2.98 C 0.83403 km/h
230 01-01-2021 00:00:00 2.09757 C 5.39 g/m*3 2.1 C 0.48889 km/h
231 02-01-2021 00:00:00 1.36771 C 5.11 g/m*3 1.37 C 1.04444 km/h
232 03-01-2021 00:00:00 2.60903 C 5.25 g/m*3 2.61 C 1.92639 km/h
233 04-01-2021 00:00:00 1.67326 C 5.23 g/m*3 1.67 C 0.16111 km/h
234 05-01-2021 00:00:00 2.52431 C 5.48 g/m*3 2.52 C 0.38368 km/h
235 06-01-2021 00:00:00 2.73333 C 5.49 g/m*3 2.73 C 2.58472 km/h
236 07-01-2021 00:00:00 2.03368 C 5.13 g/m*3 0.45 C 5.63299 km/h
237 08-01-2021 00:00:00 1.95556 C 5.27 g/m*3 1.96 C 3.92118 km/h
238 09-01-2021 00:00:00 1.34271 C 5 g/m*3 1.34 C 0.99063 km/h
239 10-01-2021 00:00:00 0.68472 C 4.71 g/m*3 0.68 C 0.51667 km/h
240 11-01-2021 00:00:00 -0.44062 C 4.24 g/m*3 -0.44 C 3.43576 km/h
241 12-01-2021 00:00:00 3.87847 C 5.74 g/m*3 0.48 C 14.31424 km/h
242 13-01-2021 00:00:00 2.46875 C 5.1 g/m*3 0.17 C 7.98368 km/h
243 14-01-2021 00:00:00 2.00556 C 4.78 g/m*3 2.01 C 3.29306 km/h
244 15-01-2021 00:00:00 0.32431 C 4.31 g/m*3 0.32 C 2.99722 km/h
245 16-01-2021 00:00:00 0.42812 C 4.13 g/m*3 0.43 C 2.00035 km/h
246 17-01-2021 00:00:00 0.51181 C 4.78 g/m*3 0.51 C 0.83889 km/h
247 18-01-2021 00:00:00 3.81701 C 5.75 g/m*3 1.14 C 10.44931 km/h
248 19-01-2021 00:00:00 5.13611 C 5.81 g/m*3 1.48 C 18.11319 km/h
249 20-01-2021 00:00:00 6.33056 C 6.06 g/m*3 6.33 C 2.75417 km/h
250 21-01-2021 00:00:00 8.96076 C 6.92 g/m*3 7.76 C 8.12532 km/h

Maximal/Minimal-Werte vom 17.05.2020 - 22.01.2021

Sensor Min Max Avg
Temp
(Aussen-T/F)
-5.8 °C
30-11-2020  08:05:00
38.2 °C
08-08-2020  17:10:00
13.12 °C
Abs-Feuchte
(Aussen-T/F)
4.02 g/m*3
30-11-2020  00:00:00
17.61 g/m*3
12-08-2020  00:00:00
9.51 g/m*3
Windchill
(Aussen-T/F)
-1.56 C
30-11-2020  00:00:00
26.13 C
08-08-2020  00:00:00
12.95 C

Die Daten stammen von einer Davis Vantage Pro 2 Wetter-Station und werden unter Linux mit der Software wview2wettercgi und aufbereitet. Alle Angaben erfolgen ohne Gewähr für ihre Vollständigkeit oder Richtigkeit.
Kontakt: Rainer Krienke krienke@uni-koblenz.de . Meine Webseiten an der Uni Koblenz oder privat.
Version: $Revision: 0.78 $